Location: Oberkirch
(48.5323°N, 8.0787°E)
Time: 02:35:01
(UTC+00:00)

AO-85 - Pass Details

Date: 23 March 2026
Orbit: 507 x 686 km, 64.8° (Epoch: 12 April)

Event Time Altitude Azimuth Distance (km) Brightness Sun altitude
Exits shadow 02:12:06 25° 31° (NNE) 1,080 ? -29.9°
Drops below altitude 10° 02:13:48 10° 36° (NE) 1,740 ? -29.7°
Sets 02:15:57 0° 38° (NE) 2,622 ? -29.4°
